24. Mai 2020
  • Aktuelles

    Stand: 10.05.20 – 19.00 Uhr LT

    Betriebsstatus des Flugplatzes: PPR
    Ab 11.05.20: Mo – Fr: Normal OPS
    Sa, So, Hol – PPR

    PPR ist telefonisch anzufordern: +49 9292 977-261

    NOTAMs, Verfahren und Hygieneregelungen hier: [ Mehr… ]

Coffee-To-Fly

Serviceangebote

Airport Coffee-Lounge

Nutzen Sie unsere gemütliche Lounge zum Ausruhen und Entspannen vor Ihrem nächsten Flug. Wir bieten Ihnen dazu Kaffee, Tee und Soft-Drinks sowie Sweets im Self-Service für kleines Geld. In unserer Flugvorbereitungs-Corner können Sie sich informieren. Natürlich bieten wir Ihnen freies WLAN. [ Mehr… ]

Unsere Flugkraftstoffe

Verhalten am Flughafen

Unsere Onlineservices

Unsere Onlineservices

AirShampoo 2020 – Wir sind dabei!

Flugplatzwetter

METAR:

EDQM 241650Z 26008KT 9999 -DZ NSC 11/07 Q1028

Doppelnutzung

In Abstimmung mit dem Freistaat Bayern wird der Verkehrslandeplatz Hof-Plauen bis auf weiteres einer Doppelnutzung ab 01.09.2015 zugeführt.

Aufgrund der Parallelnutzung zum Test von Fahrerassistenzsystemen aus dem Bereich der Automobilentwicklung ergibt sich folgende Einschränkungen:

Taxiway „B“ zeitweise nicht nutzbar und Vorfeldbereich eingeschränkt berollbar!